SBLOSBKP

Guest
Details From SBLO - Londrina
To SBKP - Sao Paulo Viracopos
Flight Number -
Tags decoded
Created
Modified
Stats Distance 221 nm / 410 km
Max Altitude 0 ft / 0 m
Waypoints 2
Social Downloads 0
Likes 0
Share VATSIM

Download

Looking for another format? Having issues loading an existing format? Contact us
Advertisement - Login to hide

Notes

Requested: SBLO DEXOV UZ65 EDMOX UM411 PUPSI SBKP Unmatched points: DEXOV UZ65 EDMOX UM411 PUPSI

Route

SBLO SBKP

ID Type Via Altitude (ft/m) Position (lat/lon) Dist (leg/tot) Name
O SBLO APT - 0 / 0 -23.33362 / -51.13007 - / 0 nm Londrina
O SBKP APT - 0 / 0 -23.00738 / -47.13452 221 / 221 nm Sao Paulo Viracopos

Altitude Profile

Advertisement - Login to hide

Weather


0- 5 10 15 20 25 30 35+ Temperature / °C

Clouds and Precipitation
Forecast for 2018-10-20 18:00 UTC. Updated 4 hours ago

Ground ~20,000 ft ~40,000 ft Winds

SBLO

Details ICAO SBLO (LDB)
Name Governador Jose Richa Airport
Region Brazil
Timezone America/Sao_Paulo (UTC-3.0)
Stats Elevation 1,868 ft / 569 m (AMSL)
Location -23.333600° -51.130100°
Runways 1
Magnetic Variation 19.203° W

METAR

SBLO 201900Z 11007KT 9999 FEW030 28/12 Q1014

Decode

TAF

TAF SBLO 201530Z 2018/2106 11012KT CAVOK TX27/2018Z TN16/2106Z BECMG 2022/2024 11007KT RMK PER

Decode

Departure Runways

ID Width Length Bearing (true/mag) Surface Threshold Overrun Markings Lighting
13 148 ft / 45 m 6,888 ft / 2,100 m 110.10° / 129.31° ASPHALT 1,083 ft / 330 m 0 ft / 0 m APP CENTERLINE EDGE THRESHOLD REIL-OMNI
31 148 ft / 45 m 6,888 ft / 2,100 m 290.10° / 309.30° ASPHALT 0 ft / 0 m 0 ft / 0 m APP CENTERLINE EDGE THRESHOLD REIL-OMNI

SBKP

Details ICAO SBKP (VCP)
Name Viracopos Intl
Region Brazil
Timezone America/Sao_Paulo (UTC-3.0)
Stats Elevation 2,169 ft / 661 m (AMSL)
Location -23.007400° -47.134500°
Runways 1
Magnetic Variation 21.302° W

METAR

SBKP 201900Z 14016KT CAVOK 24/08 Q1014

Decode

TAF

TAF SBKP 201600Z 2018/2118 14015KT 8000 NSCTN14/2108Z TX28/2118Z BECMG 2020/2022 16018KT BECMG 2101/2103 13014KT BECMG 2114/2116 FEW032 BECMG 2116/2118 NSC RMK PHG

Decode

Destination Runways

ID Width Length Bearing (true/mag) Surface Threshold Overrun Markings Lighting
15 148 ft / 45 m 10,666 ft / 3,251 m 127.88° / 149.18° ASPHALT 0 ft / 0 m 171 ft / 52 m PREC-APP CENTERLINE EDGE THRESHOLD MALSR TDZ REIL-OMNI
33 148 ft / 45 m 10,666 ft / 3,251 m 307.87° / 329.17° ASPHALT 308 ft / 94 m 187 ft / 57 m PREC-APP CENTERLINE EDGE THRESHOLD TDZ REIL-OMNI

Approach Navaids

Runway Type Ident Frequency Range Bearing (true/mag) Slope Elevation
15 OM OM - - 127.90° / 149.20 ° - 2,170 ft / 661 m (AMSL)
15 LOC-ILS IKP 110.30 MHz 18 nm / 33 km 127.95° / 149.26 ° - 2,170 ft / 661 m (AMSL)
15 GS IKP 110.30 MHz 10 nm / 19 km 128.80° / 150.11 ° 3.00° 2,170 ft / 661 m (AMSL)
15 MM MM - - 127.90° / 149.20 ° - 2,170 ft / 661 m (AMSL)

Popular Alternatives